User: anonymous   Login
Location: Owatonna
(44.0840°N, 93.2260°W)
Time: 13:10:21
(UTC-05:00)
Language:

Cosmos 1500 Rocket - Orbit

View from above orbital plane
View from above orbital plane
View from above satellite
View from above satellite

Ground track
Ground track

The orbit data is extracted from the following two-line orbital elements,

1 14373U 83099B   16148.24576515  .00000115  00000-0  10948-4 0  9995
2 14373  82.5422 245.1942 0021612  62.5296 326.4929 14.83610517763650
Epoch (UTC): 27 May 2016 05:53:54
Eccentricity: 0.0021612
inclination: 82.5422°
perigee height: 603 km
apogee height: 633 km
right ascension of ascending node: 245.1942°
argument of perigee: 62.5296°
revolutions per day: 14.83610517
mean anomaly at epoch: 326.4929°
orbit number at epoch: 76365

The dashed part of the orbit path shows where the satellite is in the earth's shadow,  

DLR